Location: Newark
(49.3000°N, 9.4667°E)
Time: 14:57:27
(UTC+00:00)

SR - Visible Passes

Search period start: 19 May 2019 00:00
Search period end: 29 May 2019 00:00
Orbit: 583 x 873 km, 66.7° (Epoch: 18 May)

Date Brightness Start Highest point End Pass type
(mag) Time Alt. Az. Time Alt. Az. Time Alt. Az.
19 May ? 21:13:36 10° WNW 21:16:34 17° WSW 21:19:39 10° SSW visible
20 May ? 20:23:10 10° NW 20:27:13 32° WSW 20:31:32 10° S visible
22 May ? 20:26:37 10° WNW 20:29:45 18° WSW 20:33:01 10° SSW visible
